| time (UTC) | temp F | wind direction | speed MPH | gust MPH | rain 1hr in | rain 24hr in | rain mn in | humidity % | barometer mb |
| 20260504070138 | 54 | 279 | 4.0 | 6.0 | 0.00 | 0.00 | 0.00 | 66 | 1005.1 |
| 20260504060138 | 56 | 263 | 5.0 | 8.0 | 0.00 | 0.00 | 0.00 | 62 | 1005.8 |
| 20260504050710 | 58 | 273 | 6.0 | 10.0 | 0.00 | 0.00 | 0.00 | 58 | 1005.8 |
| 20260504045350 | 58 | 265 | 5.0 | 10.0 | 0.00 | 0.00 | 0.00 | 58 | 1005.8 |
| 20260504044710 | 59 | 261 | 6.0 | 10.0 | 0.00 | 0.00 | 0.00 | 57 | 1005.8 |
| 20260504044031 | 59 | 253 | 5.0 | 9.0 | 0.00 | 0.00 | 0.00 | 57 | 1005.8 |
| 20260504043350 | 58 | 237 | 5.0 | 8.0 | 0.00 | 0.00 | 0.00 | 58 | 1005.8 |
| 20260504042710 | 59 | 221 | 4.0 | 8.0 | 0.00 | 0.00 | 0.00 | 58 | 1005.8 |
| 20260504042031 | 59 | 223 | 5.0 | 11.0 | 0.00 | 0.00 | 0.00 | 57 | 1005.8 |
| 20260504041349 | 59 | 214 | 5.0 | 10.0 | 0.00 | 0.00 | 0.00 | 57 | 1005.8 |
| 20260504040710 | 59 | 217 | 6.0 | 11.0 | 0.00 | 0.00 | 0.00 | 56 | 1005.8 |
| 20260504040031 | 60 | 227 | 6.0 | 11.0 | 0.00 | 0.00 | 0.00 | 56 | 1005.8 |
| 20260504035351 | 60 | 220 | 6.0 | 10.0 | 0.00 | 0.00 | 0.00 | 56 | 1005.8 |
| 20260504034711 | 0 | 212 | 4.0 | 4.0 | 0.00 | 0.00 | 0.00 | ||
| 20260504033921 | 60 | 222 | 5.0 | 10.0 | 0.00 | 0.00 | 0.00 | 55 | 1005.8 |
| 20260504033242 | 60 | 222 | 4.0 | 9.0 | 0.00 | 0.00 | 0.00 | 55 | 1005.8 |
| 20260504032602 | 60 | 208 | 5.0 | 8.0 | 0.00 | 0.00 | 0.00 | 55 | 1005.8 |
| 20260504031923 | 0 | 231 | 5.0 | 5.0 | 0.00 | 0.00 | 0.00 | ||
| 20260504031022 | 61 | 213 | 5.0 | 9.0 | 0.00 | 0.00 | 0.00 | 54 | 1005.8 |
| 20260504030342 | 61 | 217 | 5.0 | 9.0 | 0.00 | 0.00 | 0.00 | 54 | 1005.8 |
| 20260504025703 | 61 | 216 | 4.0 | 9.0 | 0.00 | 0.00 | 0.00 | 53 | 1005.8 |
| 20260504025023 | 61 | 212 | 4.0 | 8.0 | 0.00 | 0.00 | 0.00 | 53 | 1005.8 |
| 20260504024342 | 61 | 284 | 1.0 | 3.0 | 0.00 | 0.00 | 0.00 | 52 | 1005.8 |
| 20260504023552 | 62 | 220 | 4.0 | 8.0 | 0.00 | 0.00 | 0.00 | 52 | 1006.2 |
| 20260504022913 | 62 | 218 | 4.0 | 6.0 | 0.00 | 0.00 | 0.00 | 51 | 1006.2 |
| 20260504022232 | 62 | 221 | 4.0 | 7.0 | 0.00 | 0.00 | 0.00 | 50 | 1005.8 |
| 20260504021553 | 62 | 219 | 4.0 | 7.0 | 0.00 | 0.00 | 0.00 | 50 | 1005.8 |
| 20260504020912 | 63 | 218 | 4.0 | 7.0 | 0.00 | 0.00 | 0.00 | 49 | 1005.8 |
| 20260504020232 | 63 | 209 | 4.0 | 7.0 | 0.00 | 0.00 | 0.00 | 48 | 1005.8 |
| 20260504015552 | 64 | 224 | 4.0 | 8.0 | 0.00 | 0.00 | 0.00 | 48 | 1005.8 |
| 20260504014913 | 64 | 229 | 5.0 | 8.0 | 0.00 | 0.00 | 0.00 | 47 | 1005.8 |
| 20260504014233 | 0 | 213 | 6.0 | 6.0 | 0.00 | 0.00 | 0.00 | ||
| 20260504013335 | 64 | 241 | 6.0 | 13.0 | 0.00 | 0.00 | 0.00 | 46 | 1005.8 |
| 20260504012655 | 64 | 234 | 5.0 | 8.0 | 0.00 | 0.00 | 0.00 | 46 | 1005.8 |
| 20260504012017 | 64 | 230 | 4.0 | 9.0 | 0.00 | 0.00 | 0.00 | 46 | 1005.5 |
| 20260504011335 | 65 | 231 | 4.0 | 9.0 | 0.00 | 0.00 | 0.00 | 46 | 1005.5 |
| 20260504010655 | 65 | 222 | 4.0 | 9.0 | 0.00 | 0.00 | 0.00 | 45 | 1005.5 |
| 20260504010015 | 66 | 221 | 4.0 | 9.0 | 0.00 | 0.00 | 0.00 | 44 | 1005.5 |
| 20260504005336 | 66 | 223 | 4.0 | 8.0 | 0.00 | 0.00 | 0.00 | 44 | 1005.1 |
| 20260504004655 | 0 | 242 | 3.0 | 3.0 | 0.00 | 0.00 | 0.00 | ||
| 20260504003906 | 67 | 228 | 5.0 | 10.0 | 0.00 | 0.00 | 0.00 | 43 | 1005.5 |
| 20260504003227 | 67 | 235 | 5.0 | 10.0 | 0.00 | 0.00 | 0.00 | 42 | 1005.5 |
| 20260504002547 | 67 | 234 | 5.0 | 10.0 | 0.00 | 0.00 | 0.00 | 42 | 1005.5 |
| 20260504001906 | 68 | 247 | 4.0 | 15.0 | 0.00 | 0.00 | 0.00 | 42 | 1005.5 |
| 20260504001227 | 68 | 242 | 8.0 | 15.0 | 0.00 | 0.00 | 0.00 | 42 | 1005.5 |
| 20260504000547 | 0 | 212 | 4.0 | 4.0 | 0.00 | 0.00 | 0.00 | ||
| 20260503235758 | 68 | 243 | 6.0 | 16.0 | 0.00 | 0.00 | 0.00 | 41 | 1005.5 |
| 20260503235118 | 68 | 248 | 8.0 | 17.0 | 0.00 | 0.00 | 0.00 | 40 | 1005.5 |
| 20260503234438 | 68 | 246 | 8.0 | 17.0 | 0.00 | 0.00 | 0.00 | 40 | 1005.5 |
| 20260503233759 | 69 | 263 | 7.0 | 14.0 | 0.00 | 0.00 | 0.00 | 40 | 1005.5 |
| 20260503233118 | 69 | 256 | 8.0 | 14.0 | 0.00 | 0.00 | 0.00 | 40 | 1005.5 |
| 20260503232439 | 0 | 265 | 8.0 | 8.0 | 0.00 | 0.00 | 0.00 | ||
| 20260503231648 | 0 | 306 | 12.0 | 12.0 | 0.00 | 0.00 | 0.00 | ||
| 20260503230900 | 69 | 261 | 10.0 | 19.0 | 0.00 | 0.00 | 0.00 | 40 | 1005.8 |
| 20260503230220 | 68 | 266 | 12.0 | 21.0 | 0.00 | 0.00 | 0.00 | 40 | 1005.8 |
| 20260503225540 | 69 | 267 | 11.0 | 19.0 | 0.00 | 0.00 | 0.00 | 40 | 1005.8 |
| 20260503224900 | 69 | 289 | 13.0 | 19.0 | 0.00 | 0.00 | 0.00 | 39 | 1005.8 |
| 20260503224220 | 0 | 253 | 5.0 | 5.0 | 0.00 | 0.00 | 0.00 | ||
| 20260503223432 | 68 | 273 | 11.0 | 21.0 | 0.00 | 0.00 | 0.00 | 39 | 1005.8 |
| 20260503222752 | 69 | 262 | 12.0 | 24.0 | 0.00 | 0.00 | 0.00 | 39 | 1005.8 |
| 20260503222113 | 68 | 267 | 15.0 | 25.0 | 0.00 | 0.00 | 0.00 | 40 | 1005.8 |
| 20260503221432 | 69 | 280 | 12.0 | 22.0 | 0.00 | 0.00 | 0.00 | 40 | 1005.8 |
| 20260503220752 | 69 | 264 | 11.0 | 21.0 | 0.00 | 0.00 | 0.00 | 38 | 1005.8 |
| 20260503220113 | 69 | 245 | 8.0 | 22.0 | 0.00 | 0.00 | 0.00 | 39 | 1005.8 |
| 20260503215432 | 68 | 221 | 8.0 | 20.0 | 0.00 | 0.00 | 0.00 | 40 | 1005.8 |
| 20260503214752 | 67 | 219 | 10.0 | 19.0 | 0.00 | 0.00 | 0.00 | 40 | 1005.8 |
| 20260503214112 | 67 | 211 | 11.0 | 20.0 | 0.00 | 0.00 | 0.00 | 40 | 1005.8 |
| 20260503213432 | 68 | 230 | 10.0 | 22.0 | 0.00 | 0.00 | 0.00 | 39 | 1005.8 |
| 20260503212753 | 68 | 224 | 8.0 | 23.0 | 0.00 | 0.00 | 0.00 | 40 | 1006.2 |
| 20260503212113 | 67 | 254 | 14.0 | 26.0 | 0.00 | 0.00 | 0.00 | 41 | 1006.2 |
| 20260503211433 | 67 | 252 | 11.0 | 26.0 | 0.00 | 0.00 | 0.00 | 40 | 1006.5 |
| 20260503210753 | 67 | 253 | 12.0 | 22.0 | 0.00 | 0.00 | 0.00 | 41 | 1006.5 |
| 20260503210113 | 67 | 235 | 9.0 | 24.0 | 0.00 | 0.00 | 0.00 | 40 | 1006.9 |
| 20260503205433 | 66 | 215 | 12.0 | 22.0 | 0.00 | 0.00 | 0.00 | 40 | 1006.9 |
| 20260503204753 | 0 | 256 | 12.0 | 12.0 | 0.00 | 0.00 | 0.00 | ||
| 20260503204006 | 65 | 229 | 10.0 | 27.0 | 0.00 | 0.00 | 0.00 | 40 | 1007.2 |
| 20260503203327 | 66 | 223 | 12.0 | 27.0 | 0.00 | 0.00 | 0.00 | 40 | 1007.2 |
| 20260503202646 | 65 | 227 | 14.0 | 26.0 | 0.00 | 0.00 | 0.00 | 40 | 1007.2 |
| 20260503202007 | 65 | 211 | 15.0 | 24.0 | 0.00 | 0.00 | 0.00 | 39 | 1007.2 |
| 20260503201326 | 66 | 240 | 9.0 | 24.0 | 0.00 | 0.00 | 0.00 | 39 | 1007.6 |
| 20260503200645 | 65 | 242 | 12.0 | 26.0 | 0.00 | 0.00 | 0.00 | 40 | 1007.6 |
| 20260503200005 | 64 | 232 | 12.0 | 22.0 | 0.00 | 0.00 | 0.00 | 43 | 1007.9 |
| 20260503195326 | 63 | 230 | 11.0 | 26.0 | 0.00 | 0.00 | 0.00 | 45 | 1007.9 |
| 20260503194645 | 63 | 203 | 11.0 | 24.0 | 0.00 | 0.00 | 0.00 | 46 | 1007.9 |
| 20260503194006 | 63 | 224 | 12.0 | 26.0 | 0.00 | 0.00 | 0.00 | 47 | 1008.3 |
| 20260503193325 | 62 | 217 | 16.0 | 28.0 | 0.00 | 0.00 | 0.00 | 49 | 1008.3 |
| 20260503192645 | 62 | 215 | 16.0 | 25.0 | 0.00 | 0.00 | 0.00 | 47 | 1008.3 |
| 20260503192006 | 0 | 207 | 11.0 | 11.0 | 0.00 | 0.00 | 0.00 | ||
| 20260503191215 | 61 | 201 | 14.0 | 26.0 | 0.00 | 0.00 | 0.00 | 48 | 1008.6 |
| 20260503190534 | 0 | 196 | 13.0 | 13.0 | 0.00 | 0.00 | 0.00 | ||
| 20260503185746 | 61 | 207 | 10.0 | 27.0 | 0.00 | 0.00 | 0.00 | 47 | 1008.6 |
| 20260503185106 | 61 | 195 | 11.0 | 30.0 | 0.00 | 0.00 | 0.00 | 46 | 1008.6 |
| 20260503184426 | 60 | 201 | 14.0 | 28.0 | 0.00 | 0.00 | 0.00 | 46 | 1008.6 |
| 20260503183746 | 60 | 199 | 15.0 | 26.0 | 0.00 | 0.00 | 0.00 | 46 | 1008.6 |
| 20260503183105 | 60 | 194 | 11.0 | 26.0 | 0.00 | 0.00 | 0.00 | 46 | 1008.6 |
| 20260503182425 | 60 | 208 | 13.0 | 25.0 | 0.00 | 0.00 | 0.00 | 46 | 1008.6 |
| 20260503181745 | 0 | 194 | 17.0 | 17.0 | 0.00 | 0.00 | 0.00 | ||
| 20260503180957 | 59 | 211 | 12.0 | 25.0 | 0.00 | 0.00 | 0.00 | 47 | 1009.0 |
| 20260503180317 | 59 | 203 | 13.0 | 27.0 | 0.00 | 0.00 | 0.00 | 48 | 1009.3 |
| 20260503175637 | 58 | 205 | 15.0 | 29.0 | 0.00 | 0.00 | 0.00 | 48 | 1009.3 |
| 20260503174957 | 58 | 202 | 16.0 | 29.0 | 0.00 | 0.00 | 0.00 | 49 | 1009.3 |
| 20260503174318 | 58 | 192 | 14.0 | 23.0 | 0.00 | 0.00 | 0.00 | 50 | 1009.3 |
| 20260503173637 | 59 | 213 | 10.0 | 22.0 | 0.00 | 0.00 | 0.00 | 48 | 1009.7 |
| 20260503172957 | 59 | 207 | 12.0 | 30.0 | 0.00 | 0.00 | 0.00 | 49 | 1010.0 |
| 20260503172317 | 58 | 213 | 16.0 | 30.0 | 0.00 | 0.00 | 0.00 | 50 | 1010.0 |
| 20260503171637 | 0 | 196 | 12.0 | 12.0 | 0.00 | 0.00 | 0.00 | ||
| 20260503170849 | 57 | 208 | 14.0 | 24.0 | 0.00 | 0.00 | 0.01 | 54 | 1010.3 |
| 20260503170208 | 56 | 212 | 17.0 | 29.0 | 0.00 | 0.00 | 0.01 | 55 | 1010.7 |
| 20260503160209 | 51 | 209 | 9.0 | 19.0 | 0.00 | 0.00 | 0.01 | 66 | 1012.1 |
| 20260503150850 | 53 | 242 | 13.0 | 28.0 | 0.00 | 0.00 | 0.00 | 57 | 1013.1 |
| 20260503150209 | 54 | 232 | 14.0 | 28.0 | 0.00 | 0.00 | 0.00 | 55 | 1012.8 |
| 20260503140209 | 52 | 240 | 9.0 | 18.0 | 0.00 | 0.00 | 0.00 | 56 | 1013.1 |
| 20260503130849 | 50 | 247 | 10.0 | 18.0 | 0.00 | 0.00 | 0.00 | 54 | 1013.8 |
| 20260503130209 | 50 | 227 | 7.0 | 14.0 | 0.00 | 0.00 | 0.00 | 54 | 1013.8 |
| 20260503110740 | 46 | 222 | 7.0 | 14.0 | 0.00 | 0.00 | 0.00 | 57 | 1013.1 |
| 20260503081202 | 47 | 222 | 4.0 | 10.0 | 0.00 | 0.00 | 0.00 | 49 | 1014.2 |
| 20260503080522 | 47 | 226 | 6.0 | 11.0 | 0.00 | 0.00 | 0.00 | 49 | 1014.2 |